Weather History for KSBN - April, 2013

Change the Weather History Date:

Tuesday, April 9, 2013

  Actual Average Record
Temperature  
Mean Temperature 60 °F 47 °F  
Max Temperature 77 °F 57 °F 78 °F (1931)
Min Temperature 42 °F 36 °F 14 °F (1985)
Degree Days  
Heating Degree Days 5 19  
Month to date heating degree days 193 181  
Since 1 July heating degree days 5604 5725  
Cooling Degree Days 0 0  
Month to date cooling degree days 0 0  
Year to date cooling degree days 0 1  
Growing Degree Days 10 (Base 50)    
Moisture  
Dew Point 47 °F    
Average Humidity 68    
Maximum Humidity 89    
Minimum Humidity 46    
Precipitation  
Precipitation T in 0.11 in 1.19 in (1995)
Month to date precipitation 0.15 0.91  
Year to date precipitation 8.90 7.57  
Snow  
Snow 0.00 in 0.10 in 2.10 in (1961)
Month to date snowfall T 0.8  
Since 1 July snowfall 59.9 66.0  
Snow Depth 0.00 in    
Sea Level Pressure  
Sea Level Pressure 29.94 in    
Wind  
Wind Speed 9 mph (SE)    
Max Wind Speed 26 mph    
Max Gust Speed 38 mph    
Visibility 10 miles    
Events Rain    
T = Trace of Precipitation, MM = Missing Value Source: NWS Daily Summary

Daily Weather History Graph

Daily Weather History Graph

Search for Another Location

Airport or City:

Trip Planner

Search our weather history database for the weather conditions in past years. The results will help you decide how hot, cold, wet, or windy it might be!

Date:

Astronomy

Apr. 09, 2013 Rise Set
Actual Time 7:14 AM EDT 8:19 PM EDT
Civil Twilight 6:46 AM EDT 8:48 PM EDT
Nautical Twilight 6:12 AM EDT 9:22 PM EDT
Astronomical Twilight 5:36 AM EDT 9:58 PM EDT
Moon 6:37 AM EDT (4/9) 7:54 PM EDT (4/9)
Length of Visible Light 14h 02m
Length of Day
13h 05m
Waning Crescent, 1% of the Moon is Illuminated
Apr 9
Waning Crescent
Apr 10
New
Apr 18
First Quarter
Apr 25
Full
May 2
Last Quarter

Hourly Weather History & Observations

Time (EDT) Temp. Windchill Dew Point Humidity Pressure Visibility Wind Dir Wind Speed Gust Speed Precip Events Conditions
12:54 AM 42.1 °F - 37.9 °F 85% 30.01 in 9.0 mi Calm Calm - N/A   Partly Cloudy
1:54 AM 42.1 °F - 39.0 °F 89% 30.03 in 8.0 mi Calm Calm - N/A   Scattered Clouds
2:54 AM 43.0 °F 40.3 °F 39.9 °F 89% 30.02 in 8.0 mi ESE 4.6 mph - N/A   Mostly Cloudy
3:33 AM 44.6 °F 41.4 °F 41.0 °F 87% 30.00 in 9.0 mi ESE 5.8 mph - N/A   Overcast
3:54 AM 45.0 °F 42.6 °F 39.9 °F 82% 30.01 in 10.0 mi East 4.6 mph - N/A   Mostly Cloudy
4:08 AM 46.4 °F 42.9 °F 39.2 °F 76% 30.00 in 10.0 mi East 6.9 mph - N/A   Overcast
4:54 AM 46.9 °F - 41.0 °F 80% 30.01 in 10.0 mi East 4.6 mph - N/A   Overcast
5:54 AM 46.9 °F - 41.0 °F 80% 30.00 in 10.0 mi ESE 8.1 mph - 0.00 in   Scattered Clouds
6:54 AM 46.9 °F - 41.0 °F 80% 30.01 in 10.0 mi East 5.8 mph - N/A   Clear
7:54 AM 46.9 °F - 41.0 °F 80% 30.00 in 10.0 mi ESE 9.2 mph - N/A   Clear
8:54 AM 51.1 °F - 42.1 °F 71% 29.99 in 10.0 mi ESE 12.7 mph - N/A   Mostly Cloudy
9:54 AM 54.0 °F - 43.0 °F 66% 29.97 in 10.0 mi SE 11.5 mph - 0.00 in   Overcast
10:54 AM 57.9 °F - 44.1 °F 60% 29.96 in 10.0 mi ESE 18.4 mph - N/A   Mostly Cloudy
11:54 AM 57.9 °F - 48.0 °F 70% 29.95 in 9.0 mi SE 10.4 mph - 0.00 in Rain Light Rain
12:54 PM 63.0 °F - 51.1 °F 65% 29.90 in 10.0 mi SE 9.2 mph - 0.00 in   Overcast
1:54 PM 70.0 °F - 54.0 °F 57% 29.87 in 10.0 mi South 8.1 mph - N/A   Overcast
2:54 PM 73.0 °F - 55.9 °F 55% 29.86 in 10.0 mi SSW 17.3 mph 24.2 mph N/A   Mostly Cloudy
3:54 PM 71.1 °F - 57.0 °F 61% 29.86 in 10.0 mi SSW 9.2 mph - 0.00 in   Overcast
4:54 PM 73.0 °F - 59.0 °F 61% 29.82 in 10.0 mi SSW 12.7 mph - 0.00 in   Mostly Cloudy
5:54 PM 75.9 °F - 54.0 °F 46% 29.83 in 10.0 mi SW 18.4 mph 38.0 mph N/A   Overcast
6:54 PM 75.0 °F - 55.0 °F 50% 29.85 in 10.0 mi SW 15.0 mph 24.2 mph N/A   Overcast
7:54 PM 62.1 °F - 52.0 °F 70% 29.88 in 10.0 mi NW 9.2 mph - N/A   Overcast
8:54 PM 57.9 °F - 51.1 °F 78% 29.90 in 10.0 mi NW 5.8 mph - N/A   Overcast
9:54 PM 53.1 °F - 48.0 °F 83% 29.93 in 9.0 mi WNW 4.6 mph - N/A   Overcast
10:54 PM 53.1 °F - 46.9 °F 80% 29.94 in 9.0 mi NW 6.9 mph - N/A   Overcast
11:54 PM 54.0 °F - 48.9 °F 83% 29.93 in 8.0 mi North 6.9 mph - N/A   Overcast